Time,TemperatureF,DewpointF,PressureIn,WindDirection,WindDirectionDegrees,WindSpeedMPH,WindSpeedGustMPH,Humidity,HourlyPrecipIn,Conditions,Clouds,dailyrainin,SoftwareType,DateUTC
2013-07-30 00:01:00,66.9,60.5,29.58,SW,225,0.0,0.0,80,0.00,CLR,SCT,0.00,WeatherDisplay:10.37,2013-07-30 04:01:00,
2013-07-30 00:02:00,66.9,60.5,29.58,SW,225,0.0,0.0,80,0.00,CLR,SCT,0.00,WeatherDisplay:10.37,2013-07-30 04:02:00,
2013-07-30 00:07:00,66.7,60.4,29.58,SE,135,0.0,0.0,80,0.00,CLR,SCT,0.00,WeatherDisplay:10.37,2013-07-30 04:07:00,
2013-07-30 00:13:00,66.6,60.5,29.58,SE,135,1.2,0.0,81,0.00,CLR,SCT,0.00,WeatherDisplay:10.37,2013-07-30 04:13:00,
2013-07-30 00:18:00,66.4,60.4,29.58,SE,135,0.0,0.0,81,0.00,CLR,SCT,0.00,WeatherDisplay:10.37,2013-07-30 04:18:00,
2013-07-30 00:23:00,66.2,60.2,29.58,SW,225,0.0,0.0,81,0.00,CLR,SCT,0.00,WeatherDisplay:10.37,2013-07-30 04:23:00,
2013-07-30 00:28:00,66.2,59.8,29.59,North,0,0.0,0.0,80,0.00,CLR,SCT,0.00,WeatherDisplay:10.37,2013-07-30 04:28:00,
2013-07-30 00:33:00,66.6,59.8,29.58,SE,135,0.0,0.0,79,0.00,CLR,SCT,0.00,WeatherDisplay:10.37,2013-07-30 04:33:00,
2013-07-30 00:38:00,66.6,59.8,29.58,SE,135,0.0,0.0,79,0.00,CLR,SCT,0.00,WeatherDisplay:10.37,2013-07-30 04:38:00,
2013-07-30 00:43:00,66.6,59.8,29.58,SE,135,0.0,0.0,79,0.00,CLR,SCT,0.00,WeatherDisplay:10.37,2013-07-30 04:43:00,
2013-07-30 00:48:00,66.4,59.7,29.58,West,270,0.0,0.0,79,0.00,CLR,SCT,0.00,WeatherDisplay:10.37,2013-07-30 04:48:00,
2013-07-30 00:53:00,66.6,59.5,29.58,North,0,0.0,0.0,78,0.00,CLR,SCT,0.00,WeatherDisplay:10.37,2013-07-30 04:53:00,
2013-07-30 00:58:00,66.9,59.8,29.58,South,180,1.2,0.0,78,0.00,CLR,SCT,0.00,WeatherDisplay:10.37,2013-07-30 04:58:00,
2013-07-30 01:03:00,66.9,59.8,29.59,South,180,1.2,0.0,78,0.00,CLR,SCT,0.00,WeatherDisplay:10.37,2013-07-30 05:03:00,
2013-07-30 01:08:00,66.9,60.2,29.59,NW,315,1.2,0.0,79,0.00,CLR,SCT,0.00,WeatherDisplay:10.37,2013-07-30 05:08:00,
2013-07-30 01:13:00,67.1,60.0,29.59,East,90,1.2,0.0,78,0.00,CLR,SCT,0.00,WeatherDisplay:10.37,2013-07-30 05:13:00,
2013-07-30 01:18:00,66.9,59.8,29.59,West,270,0.0,0.0,78,0.00,CLR,SCT,0.00,WeatherDisplay:10.37,2013-07-30 05:18:00,
2013-07-30 01:23:00,66.9,59.8,29.59,NW,315,1.2,0.0,78,0.00,CLR,SCT,0.00,WeatherDisplay:10.37,2013-07-30 05:23:00,
2013-07-30 01:28:00,67.1,59.6,29.59,NW,315,0.0,0.0,77,0.00,CLR,SCT,0.00,WeatherDisplay:10.37,2013-07-30 05:28:00,
2013-07-30 01:33:00,67.1,59.3,29.58,North,0,0.0,0.0,76,0.00,CLR,SCT,0.00,WeatherDisplay:10.37,2013-07-30 05:33:00,
2013-07-30 01:38:00,67.1,59.3,29.59,North,0,0.0,0.0,76,0.00,CLR,SCT,0.00,WeatherDisplay:10.37,2013-07-30 05:38:00,
2013-07-30 01:43:00,66.9,59.1,29.58,SE,135,0.0,0.0,76,0.00,CLR,SCT,0.00,WeatherDisplay:10.37,2013-07-30 05:43:00,
2013-07-30 01:48:00,66.7,59.3,29.58,NW,315,0.7,0.0,77,0.00,CLR,SCT,0.00,WeatherDisplay:10.37,2013-07-30 05:48:00,
2013-07-30 01:53:00,66.7,59.3,29.58,NW,315,1.2,0.0,77,0.00,CLR,SCT,0.00,WeatherDisplay:10.37,2013-07-30 05:53:00,
2013-07-30 01:58:00,66.7,59.3,29.58,NW,315,0.0,0.0,77,0.00,CLR,SCT,0.00,WeatherDisplay:10.37,2013-07-30 05:58:00,
2013-07-30 02:03:00,66.6,59.1,29.58,NW,315,0.0,0.0,77,0.00,CLR,SCT,0.00,WeatherDisplay:10.37,2013-07-30 06:03:00,
2013-07-30 02:08:00,66.2,58.8,29.58,West,270,0.0,0.0,77,0.00,CLR,SCT,0.00,WeatherDisplay:10.37,2013-07-30 06:08:00,
2013-07-30 02:13:00,66.0,59.3,29.58,West,270,0.0,0.0,79,0.00,CLR,SCT,0.00,WeatherDisplay:10.37,2013-07-30 06:13:00,
2013-07-30 02:18:00,65.8,59.1,29.58,West,270,0.0,0.0,79,0.00,CLR,SCT,0.00,WeatherDisplay:10.37,2013-07-30 06:18:00,
2013-07-30 02:23:00,65.7,59.0,29.58,NW,315,0.0,0.0,79,0.00,CLR,SCT,0.00,WeatherDisplay:10.37,2013-07-30 06:23:00,
2013-07-30 02:28:00,65.7,59.3,29.58,NW,315,0.0,0.0,80,0.00,CLR,SCT,0.00,WeatherDisplay:10.37,2013-07-30 06:28:00,
2013-07-30 02:33:00,65.8,59.5,29.58,SE,135,0.0,0.0,80,0.00,CLR,SCT,0.00,WeatherDisplay:10.37,2013-07-30 06:33:00,
2013-07-30 02:38:00,66.0,59.7,29.58,SE,135,0.0,0.0,80,0.00,CLR,SCT,0.00,WeatherDisplay:10.37,2013-07-30 06:38:00,
2013-07-30 02:43:00,66.0,59.7,29.58,East,90,0.0,0.0,80,0.00,CLR,SCT,0.00,WeatherDisplay:10.37,2013-07-30 06:43:00,
2013-07-30 02:48:00,66.2,59.8,29.58,SE,135,0.0,0.0,80,0.00,CLR,SCT,0.00,WeatherDisplay:10.37,2013-07-30 06:48:00,
2013-07-30 02:53:00,65.8,59.8,29.58,NE,45,0.0,0.0,81,0.00,CLR,SCT,0.00,WeatherDisplay:10.37,2013-07-30 06:53:00,
2013-07-30 02:58:00,65.8,59.5,29.58,NE,45,0.0,0.0,80,0.00,CLR,SCT,0.00,WeatherDisplay:10.37,2013-07-30 06:58:00,
2013-07-30 03:03:00,65.8,59.8,29.58,NE,45,0.0,0.0,81,0.00,CLR,SCT,0.00,WeatherDisplay:10.37,2013-07-30 07:03:00,
2013-07-30 03:08:00,65.8,59.8,29.58,NW,315,0.0,0.0,81,0.00,CLR,SCT,0.00,WeatherDisplay:10.37,2013-07-30 07:08:00,
2013-07-30 03:13:00,65.8,59.8,29.58,South,180,0.0,0.0,81,0.00,CLR,SCT,0.00,WeatherDisplay:10.37,2013-07-30 07:13:00,
2013-07-30 03:18:00,65.8,59.8,29.58,NW,315,0.0,0.0,81,0.00,CLR,SCT,0.00,WeatherDisplay:10.37,2013-07-30 07:18:00,
2013-07-30 03:24:00,65.8,59.5,29.58,NW,315,0.0,0.0,80,0.00,CLR,SCT,0.00,WeatherDisplay:10.37,2013-07-30 07:24:00,
2013-07-30 03:29:00,65.8,59.8,29.58,NW,315,0.0,0.0,81,0.00,CLR,SCT,0.00,WeatherDisplay:10.37,2013-07-30 07:29:00,
2013-07-30 03:34:00,66.2,59.5,29.58,North,0,1.2,0.0,79,0.00,CLR,SCT,0.00,WeatherDisplay:10.37,2013-07-30 07:34:00,
2013-07-30 03:39:00,66.2,59.5,29.58,SE,135,0.0,0.0,79,0.00,CLR,SCT,0.00,WeatherDisplay:10.37,2013-07-30 07:39:00,
2013-07-30 03:44:00,66.2,59.1,29.58,North,0,1.2,0.0,78,0.00,CLR,SCT,0.00,WeatherDisplay:10.37,2013-07-30 07:44:00,
2013-07-30 03:49:00,66.2,59.1,29.58,North,0,0.0,0.0,78,0.00,CLR,SCT,0.00,WeatherDisplay:10.37,2013-07-30 07:49:00,
2013-07-30 03:54:00,66.2,59.1,29.58,NW,315,0.0,0.0,78,0.00,CLR,SCT,0.00,WeatherDisplay:10.37,2013-07-30 07:54:00,
2013-07-30 03:59:00,66.6,59.5,29.58,West,270,0.0,0.0,78,0.00,CLR,SCT,0.00,WeatherDisplay:10.37,2013-07-30 07:59:00,
2013-07-30 04:04:00,66.6,59.5,29.58,North,0,0.0,0.0,78,0.00,CLR,SCT,0.00,WeatherDisplay:10.37,2013-07-30 08:04:00,
2013-07-30 04:09:00,66.6,59.5,29.58,North,0,0.0,0.0,78,0.00,CLR,SCT,0.00,WeatherDisplay:10.37,2013-07-30 08:09:00,
2013-07-30 04:14:00,66.6,59.1,29.58,North,0,0.0,0.0,77,0.00,CLR,SCT,0.00,WeatherDisplay:10.37,2013-07-30 08:14:00,
2013-07-30 04:19:00,66.4,59.3,29.58,South,180,0.0,0.0,78,0.00,CLR,SCT,0.00,WeatherDisplay:10.37,2013-07-30 08:19:00,
2013-07-30 04:24:00,66.2,59.5,29.58,SW,225,1.2,0.0,79,0.00,CLR,SCT,0.00,WeatherDisplay:10.37,2013-07-30 08:24:00,
2013-07-30 04:29:00,65.8,59.8,29.59,SW,225,1.2,0.0,81,0.00,CLR,SCT,0.00,WeatherDisplay:10.37,2013-07-30 08:29:00,
2013-07-30 04:34:00,65.7,59.7,29.58,SW,225,1.2,0.0,81,0.00,CLR,SCT,0.00,WeatherDisplay:10.37,2013-07-30 08:34:00,
2013-07-30 04:39:00,65.7,59.7,29.59,NW,315,0.0,0.0,81,0.00,CLR,SCT,0.00,WeatherDisplay:10.37,2013-07-30 08:39:00,
2013-07-30 04:44:00,65.7,60.0,29.59,SE,135,0.0,0.0,82,0.00,CLR,SCT,0.00,WeatherDisplay:10.37,2013-07-30 08:44:00,
2013-07-30 04:49:00,65.5,59.8,29.59,SE,135,0.0,0.0,82,0.00,CLR,SCT,0.00,WeatherDisplay:10.37,2013-07-30 08:49:00,
2013-07-30 04:54:00,65.5,59.8,29.59,SE,135,0.0,0.0,82,0.00,CLR,SCT,0.00,WeatherDisplay:10.37,2013-07-30 08:54:00,
2013-07-30 04:59:00,65.3,60.0,29.59,SE,135,0.0,0.0,83,0.00,CLR,SCT,0.00,WeatherDisplay:10.37,2013-07-30 08:59:00,
2013-07-30 05:04:00,65.3,60.0,29.59,SE,135,0.0,0.0,83,0.00,CLR,SCT,0.00,WeatherDisplay:10.37,2013-07-30 09:04:00,
2013-07-30 05:09:00,65.1,59.8,29.59,SE,135,0.0,0.0,83,0.00,CLR,SCT,0.00,WeatherDisplay:10.37,2013-07-30 09:09:00,
2013-07-30 05:14:00,65.1,59.8,29.59,SE,135,0.0,0.0,83,0.00,CLR,SCT,0.00,WeatherDisplay:10.37,2013-07-30 09:14:00,
2013-07-30 05:19:00,64.9,60.0,29.60,SW,225,0.0,0.0,84,0.00,CLR,SCT,0.00,WeatherDisplay:10.37,2013-07-30 09:19:00,
2013-07-30 05:24:00,64.9,60.0,29.59,SE,135,0.0,0.0,84,0.00,CLR,SCT,0.00,WeatherDisplay:10.37,2013-07-30 09:24:00,
2013-07-30 05:29:00,64.9,60.3,29.59,SE,135,0.0,0.0,85,0.00,CLR,SCT,0.00,WeatherDisplay:10.37,2013-07-30 09:29:00,
2013-07-30 05:34:00,64.8,60.1,29.60,SE,135,0.0,0.0,85,0.00,CLR,SCT,0.00,WeatherDisplay:10.37,2013-07-30 09:34:00,
2013-07-30 05:39:00,64.4,59.8,29.60,NW,315,0.0,0.0,85,0.00,CLR,SCT,0.00,WeatherDisplay:10.37,2013-07-30 09:39:00,
2013-07-30 05:44:00,64.4,59.8,29.60,East,90,0.0,0.0,85,0.00,CLR,SCT,0.00,WeatherDisplay:10.37,2013-07-30 09:44:00,
2013-07-30 05:49:00,64.4,60.1,29.59,East,90,0.0,0.0,86,0.00,CLR,SCT,0.00,WeatherDisplay:10.37,2013-07-30 09:49:00,
2013-07-30 05:54:00,64.4,59.8,29.60,SW,225,1.2,0.0,85,0.00,CLR,SCT,0.00,WeatherDisplay:10.37,2013-07-30 09:54:00,
2013-07-30 05:59:00,64.4,59.8,29.60,North,0,1.2,0.0,85,0.00,CLR,SCT,0.00,WeatherDisplay:10.37,2013-07-30 09:59:00,
2013-07-30 06:04:00,64.4,59.8,29.60,North,0,1.2,0.0,85,0.00,CLR,SCT,0.00,WeatherDisplay:10.37,2013-07-30 10:04:00,
2013-07-30 06:09:00,64.6,60.0,29.60,SE,135,1.2,0.0,85,0.00,CLR,SCT,0.00,WeatherDisplay:10.37,2013-07-30 10:09:00,
2013-07-30 06:14:00,64.8,60.1,29.60,SE,135,1.2,0.0,85,0.00,CLR,SCT,0.00,WeatherDisplay:10.37,2013-07-30 10:14:00,
2013-07-30 06:19:00,64.8,60.1,29.61,North,0,1.2,0.0,85,0.00,CLR,SCT,0.00,WeatherDisplay:10.37,2013-07-30 10:19:00,
2013-07-30 06:20:00,64.8,60.1,29.61,NW,315,0.0,0.0,85,0.00,CLR,SCT,0.00,WeatherDisplay:10.37,2013-07-30 10:20:00,
2013-07-30 06:25:00,64.9,60.3,29.61,NW,315,1.2,0.0,85,0.00,CLR,SCT,0.00,WeatherDisplay:10.37,2013-07-30 10:25:00,
2013-07-30 06:30:00,64.9,60.3,29.61,NW,315,0.0,0.0,85,0.00,CLR,SCT,0.00,WeatherDisplay:10.37,2013-07-30 10:30:00,
2013-07-30 06:35:00,64.9,60.3,29.62,South,180,0.0,0.0,85,0.00,CLR,SCT,0.00,WeatherDisplay:10.37,2013-07-30 10:35:00,
2013-07-30 06:40:00,64.8,60.1,29.62,South,180,0.0,0.0,85,0.00,CLR,SCT,0.00,WeatherDisplay:10.37,2013-07-30 10:40:00,
2013-07-30 06:45:00,64.8,60.1,29.62,North,0,0.0,0.0,85,0.00,CLR,SCT,0.00,WeatherDisplay:10.37,2013-07-30 10:45:00,
2013-07-30 06:50:00,64.8,60.1,29.62,North,0,0.0,0.0,85,0.00,CLR,SCT,0.00,WeatherDisplay:10.37,2013-07-30 10:50:00,
2013-07-30 06:55:00,64.8,60.1,29.62,North,0,0.0,0.0,85,0.00,CLR,SCT,0.00,WeatherDisplay:10.37,2013-07-30 10:55:00,
2013-07-30 07:00:00,64.8,60.1,29.62,SE,135,0.0,0.0,85,0.00,CLR,SCT,0.00,WeatherDisplay:10.37,2013-07-30 11:00:00,
2013-07-30 07:05:00,64.8,60.1,29.61,SE,135,0.0,0.0,85,0.00,CLR,SCT,0.00,WeatherDisplay:10.37,2013-07-30 11:05:00,
2013-07-30 07:10:00,64.8,60.1,29.62,SE,135,0.0,0.0,85,0.00,CLR,SCT,0.00,WeatherDisplay:10.37,2013-07-30 11:10:00,
2013-07-30 07:15:00,64.8,60.5,29.62,SE,135,0.0,0.0,86,0.00,CLR,SCT,0.00,WeatherDisplay:10.37,2013-07-30 11:15:00,
2013-07-30 07:20:00,64.9,60.6,29.62,SE,135,0.0,0.0,86,0.00,CLR,SCT,0.00,WeatherDisplay:10.37,2013-07-30 11:20:00,
2013-07-30 07:25:00,64.9,60.6,29.62,NW,315,0.0,0.0,86,0.00,CLR,SCT,0.00,WeatherDisplay:10.37,2013-07-30 11:25:00,
2013-07-30 07:30:00,64.9,60.3,29.63,SE,135,0.0,0.0,85,0.00,CLR,SCT,0.00,WeatherDisplay:10.37,2013-07-30 11:30:00,
2013-07-30 07:35:00,65.1,60.5,29.63,SE,135,1.2,0.0,85,0.00,CLR,SCT,0.00,WeatherDisplay:10.37,2013-07-30 11:35:00,
2013-07-30 07:40:00,65.1,60.8,29.62,SE,135,1.2,0.0,86,0.00,CLR,SCT,0.00,WeatherDisplay:10.37,2013-07-30 11:40:00,
2013-07-30 07:45:00,65.3,61.0,29.63,SE,135,0.7,0.0,86,0.00,CLR,SCT,0.00,WeatherDisplay:10.37,2013-07-30 11:45:00,
2013-07-30 07:50:00,65.3,61.0,29.63,SE,135,0.0,0.0,86,0.00,CLR,SCT,0.00,WeatherDisplay:10.37,2013-07-30 11:50:00,
2013-07-30 07:55:00,65.5,61.2,29.63,SE,135,1.2,0.0,86,0.00,CLR,SCT,0.00,WeatherDisplay:10.37,2013-07-30 11:55:00,
2013-07-30 08:00:00,65.8,61.2,29.63,North,0,0.0,0.0,85,0.00,CLR,SCT,0.00,WeatherDisplay:10.37,2013-07-30 12:00:00,
2013-07-30 08:05:00,65.8,61.2,29.63,North,0,0.0,0.0,85,0.00,CLR,SCT,0.00,WeatherDisplay:10.37,2013-07-30 12:05:00,
2013-07-30 08:10:00,66.2,61.2,29.64,NW,315,0.0,0.0,84,0.00,CLR,SCT,0.00,WeatherDisplay:10.37,2013-07-30 12:10:00,
2013-07-30 08:15:00,66.6,61.6,29.64,South,180,1.2,0.0,84,0.00,CLR,SCT,0.00,WeatherDisplay:10.37,2013-07-30 12:15:00,
2013-07-30 08:20:00,66.9,61.9,29.64,SE,135,0.0,0.0,84,0.00,CLR,SCT,0.00,WeatherDisplay:10.37,2013-07-30 12:20:00,
2013-07-30 08:25:00,67.1,62.1,29.64,SE,135,1.2,0.0,84,0.00,CLR,SCT,0.00,WeatherDisplay:10.37,2013-07-30 12:25:00,
2013-07-30 08:30:00,67.3,61.9,29.64,East,90,1.2,0.0,83,0.00,CLR,SCT,0.00,WeatherDisplay:10.37,2013-07-30 12:30:00,
2013-07-30 08:35:00,67.5,61.4,29.64,North,0,1.2,0.0,81,0.00,CLR,SCT,0.00,WeatherDisplay:10.37,2013-07-30 12:35:00,
2013-07-30 08:40:00,67.6,61.6,29.64,North,0,1.2,0.0,81,0.00,CLR,SCT,0.00,WeatherDisplay:10.37,2013-07-30 12:40:00,
2013-07-30 08:45:00,67.8,61.8,29.64,SE,135,1.2,0.0,81,0.00,CLR,SCT,0.00,WeatherDisplay:10.37,2013-07-30 12:45:00,
2013-07-30 08:50:00,68.0,61.6,29.65,NW,315,1.2,0.0,80,0.00,CLR,SCT,0.00,WeatherDisplay:10.37,2013-07-30 12:50:00,
2013-07-30 08:55:00,68.5,62.8,29.65,SE,135,0.0,0.0,82,0.00,CLR,SCT,0.00,WeatherDisplay:10.37,2013-07-30 12:55:00,
2013-07-30 09:00:00,68.9,62.5,29.65,SE,135,1.2,0.0,80,0.00,CLR,SCT,0.00,WeatherDisplay:10.37,2013-07-30 13:00:00,
2013-07-30 09:05:00,69.3,62.8,29.65,NE,45,0.0,0.0,80,0.00,CLR,SCT,0.00,WeatherDisplay:10.37,2013-07-30 13:05:00,
2013-07-30 09:10:00,69.6,62.1,29.65,SE,135,1.2,0.0,77,0.00,CLR,SCT,0.00,WeatherDisplay:10.37,2013-07-30 13:10:00,
2013-07-30 09:15:00,70.2,61.5,29.65,South,180,0.0,0.0,74,0.00,CLR,SCT,0.00,WeatherDisplay:10.37,2013-07-30 13:15:00,
2013-07-30 09:20:00,70.9,62.2,29.65,NW,315,0.0,0.0,74,0.00,CLR,SCT,0.00,WeatherDisplay:10.37,2013-07-30 13:20:00,
2013-07-30 09:25:00,72.7,62.7,29.65,South,180,0.0,0.0,71,0.00,CLR,SCT,0.00,WeatherDisplay:10.37,2013-07-30 13:25:00,
2013-07-30 09:30:00,74.3,63.1,29.65,NNW,338,0.0,0.0,68,0.00,CLR,SCT,0.00,WeatherDisplay:10.37,2013-07-30 13:30:00,
2013-07-30 09:35:00,74.7,63.0,29.64,NW,315,0.0,0.0,67,0.00,CLR,SCT,0.00,WeatherDisplay:10.37,2013-07-30 13:35:00,
2013-07-30 09:40:00,74.7,63.0,29.65,NW,315,1.2,0.0,67,0.00,CLR,SCT,0.00,WeatherDisplay:10.37,2013-07-30 13:40:00,
2013-07-30 09:45:00,74.3,62.6,29.65,South,180,0.0,0.0,67,0.00,CLR,SCT,0.00,WeatherDisplay:10.37,2013-07-30 13:45:00,
2013-07-30 09:50:00,73.9,62.3,29.65,SE,135,0.0,0.0,67,0.00,CLR,SCT,0.00,WeatherDisplay:10.37,2013-07-30 13:50:00,
2013-07-30 09:55:00,73.8,62.1,29.64,SE,135,0.0,0.0,67,0.00,CLR,SCT,0.00,WeatherDisplay:10.37,2013-07-30 13:55:00,
2013-07-30 10:00:00,74.1,62.5,29.64,SE,135,1.2,0.0,67,0.00,CLR,SCT,0.00,WeatherDisplay:10.37,2013-07-30 14:00:00,
2013-07-30 10:05:00,76.6,63.1,29.64,SE,135,0.0,0.0,63,0.00,CLR,SCT,0.00,WeatherDisplay:10.37,2013-07-30 14:05:00,
2013-07-30 10:10:00,76.6,63.5,29.64,North,0,0.0,0.0,64,0.00,CLR,SCT,0.00,WeatherDisplay:10.37,2013-07-30 14:10:00,
2013-07-30 10:15:00,75.6,61.6,29.64,North,0,0.0,0.0,62,0.00,CLR,SCT,0.00,WeatherDisplay:10.37,2013-07-30 14:15:00,
2013-07-30 10:20:00,75.6,62.5,29.65,NE,45,1.2,0.0,64,0.00,CLR,SCT,0.00,WeatherDisplay:10.37,2013-07-30 14:20:00,
2013-07-30 10:25:00,75.6,62.5,29.64,SE,135,0.0,0.0,64,0.00,CLR,SCT,0.00,WeatherDisplay:10.37,2013-07-30 14:25:00,
2013-07-30 10:30:00,76.3,62.3,29.64,North,0,0.0,0.0,62,0.00,CLR,SCT,0.00,WeatherDisplay:10.37,2013-07-30 14:30:00,
2013-07-30 10:35:00,76.3,63.6,29.64,South,180,0.0,0.0,65,0.00,CLR,SCT,0.00,WeatherDisplay:10.37,2013-07-30 14:35:00,
2013-07-30 10:40:00,76.8,61.4,29.64,South,180,0.0,0.0,59,0.00,CLR,SCT,0.00,WeatherDisplay:10.37,2013-07-30 14:40:00,
2013-07-30 10:45:00,75.4,59.6,29.64,South,180,0.0,0.0,58,0.00,CLR,SCT,0.00,WeatherDisplay:10.37,2013-07-30 14:45:00,
2013-07-30 10:50:00,75.0,62.0,29.64,East,90,1.2,0.0,64,0.00,CLR,SCT,0.00,WeatherDisplay:10.37,2013-07-30 14:50:00,
2013-07-30 10:55:00,75.9,62.9,29.64,SE,135,0.0,0.0,64,0.00,CLR,SCT,0.00,WeatherDisplay:10.37,2013-07-30 14:55:00,
2013-07-30 11:00:00,75.9,61.5,29.64,West,270,0.0,0.0,61,0.00,CLR,SCT,0.00,WeatherDisplay:10.37,2013-07-30 15:00:00,
2013-07-30 11:05:00,76.8,64.2,29.64,North,0,0.0,0.0,65,0.00,CLR,SCT,0.00,WeatherDisplay:10.37,2013-07-30 15:05:00,
2013-07-30 11:10:00,77.5,63.0,29.64,SE,135,1.2,0.0,61,0.00,CLR,SCT,0.00,WeatherDisplay:10.37,2013-07-30 15:10:00,
2013-07-30 11:15:00,78.1,62.1,29.64,NE,45,1.2,0.0,58,0.00,CLR,SCT,0.00,WeatherDisplay:10.37,2013-07-30 15:15:00,
2013-07-30 11:20:00,77.7,61.3,29.64,SE,135,0.0,0.0,57,0.00,CLR,SCT,0.00,WeatherDisplay:10.37,2013-07-30 15:20:00,
2013-07-30 11:25:00,79.3,62.3,29.63,SE,135,0.0,0.0,56,0.00,CLR,SCT,0.00,WeatherDisplay:10.37,2013-07-30 15:25:00,
2013-07-30 11:30:00,79.3,62.3,29.63,SE,135,1.2,0.0,56,0.00,CLR,SCT,0.00,WeatherDisplay:10.37,2013-07-30 15:30:00,
2013-07-30 11:35:00,78.6,61.1,29.63,WNW,292,0.0,0.0,55,0.00,CLR,SCT,0.00,WeatherDisplay:10.37,2013-07-30 15:35:00,
2013-07-30 11:41:00,78.3,63.7,29.64,South,180,1.2,0.0,61,0.00,CLR,SCT,0.00,WeatherDisplay:10.37,2013-07-30 15:41:00,
2013-07-30 11:46:00,78.3,62.8,29.63,NW,315,1.2,0.0,59,0.00,CLR,SCT,0.00,WeatherDisplay:10.37,2013-07-30 15:46:00,
2013-07-30 11:51:00,78.4,64.8,29.63,SE,135,0.0,0.0,63,0.00,CLR,SCT,0.00,WeatherDisplay:10.37,2013-07-30 15:51:00,
2013-07-30 11:56:00,77.7,62.7,29.63,SW,225,1.2,0.0,60,0.00,CLR,SCT,0.00,WeatherDisplay:10.37,2013-07-30 15:56:00,
2013-07-30 12:01:00,77.4,61.4,29.64,SE,135,0.0,0.0,58,0.00,CLR,SCT,0.00,WeatherDisplay:10.37,2013-07-30 16:01:00,
2013-07-30 12:06:00,76.8,62.8,29.63,SE,135,0.0,0.0,62,0.00,CLR,SCT,0.00,WeatherDisplay:10.37,2013-07-30 16:06:00,
2013-07-30 12:11:00,76.8,63.7,29.63,South,180,1.2,0.0,64,0.00,CLR,SCT,0.00,WeatherDisplay:10.37,2013-07-30 16:11:00,
2013-07-30 12:16:00,76.5,61.5,29.63,SE,135,0.0,0.0,60,0.00,CLR,SCT,0.00,WeatherDisplay:10.37,2013-07-30 16:16:00,
2013-07-30 12:21:00,77.0,63.0,29.63,SE,135,0.0,0.0,62,0.00,CLR,SCT,0.00,WeatherDisplay:10.37,2013-07-30 16:21:00,
2013-07-30 12:26:00,77.2,62.2,29.63,SE,135,0.0,0.0,60,0.00,CLR,SCT,0.00,WeatherDisplay:10.37,2013-07-30 16:26:00,
2013-07-30 12:31:00,77.2,61.7,29.63,SE,135,1.2,0.0,59,0.00,CLR,SCT,0.00,WeatherDisplay:10.37,2013-07-30 16:31:00,
2013-07-30 12:36:00,77.2,62.7,29.63,SE,135,0.0,0.0,61,0.00,CLR,SCT,0.00,WeatherDisplay:10.37,2013-07-30 16:36:00,
2013-07-30 12:41:00,77.0,62.5,29.62,SE,135,0.0,0.0,61,0.00,CLR,SCT,0.00,WeatherDisplay:10.37,2013-07-30 16:41:00,
2013-07-30 12:46:00,76.5,63.4,29.63,SE,135,1.2,0.0,64,0.00,CLR,SCT,0.00,WeatherDisplay:10.37,2013-07-30 16:46:00,
2013-07-30 12:51:00,76.1,63.0,29.63,South,180,1.2,0.0,64,0.00,CLR,SCT,0.00,WeatherDisplay:10.37,2013-07-30 16:51:00,
2013-07-30 12:56:00,76.1,62.6,29.63,SE,135,0.0,0.0,63,0.00,CLR,SCT,0.00,WeatherDisplay:10.37,2013-07-30 16:56:00,
2013-07-30 13:01:00,76.6,63.5,29.62,SE,135,0.0,0.0,64,0.00,CLR,SCT,0.00,WeatherDisplay:10.37,2013-07-30 17:01:00,
2013-07-30 13:06:00,77.4,62.9,29.62,NW,315,0.0,0.0,61,0.00,CLR,SCT,0.00,WeatherDisplay:10.37,2013-07-30 17:06:00,
2013-07-30 13:11:00,77.4,63.3,29.62,South,180,0.0,0.0,62,0.00,CLR,SCT,0.00,WeatherDisplay:10.37,2013-07-30 17:11:00,
2013-07-30 13:16:00,77.7,62.7,29.62,NW,315,1.2,0.0,60,0.00,CLR,SCT,0.00,WeatherDisplay:10.37,2013-07-30 17:16:00,
2013-07-30 13:21:00,77.7,62.7,29.62,NW,315,1.2,0.0,60,0.00,CLR,SCT,0.00,WeatherDisplay:10.37,2013-07-30 17:21:00,
2013-07-30 13:26:00,78.6,63.6,29.61,SE,135,1.2,0.0,60,0.00,CLR,SCT,0.00,WeatherDisplay:10.37,2013-07-30 17:26:00,
2013-07-30 13:31:00,79.9,63.3,29.61,SE,135,0.0,0.0,57,0.00,CLR,SCT,0.00,WeatherDisplay:10.37,2013-07-30 17:31:00,
2013-07-30 13:36:00,80.4,64.3,29.61,SE,135,0.0,0.0,58,0.00,CLR,SCT,0.00,WeatherDisplay:10.37,2013-07-30 17:36:00,
2013-07-30 13:41:00,81.1,64.0,29.61,South,180,1.2,0.0,56,0.00,CLR,SCT,0.00,WeatherDisplay:10.37,2013-07-30 17:41:00,
2013-07-30 13:46:00,81.1,63.4,29.61,NW,315,1.2,0.0,55,0.00,CLR,SCT,0.00,WeatherDisplay:10.37,2013-07-30 17:46:00,
2013-07-30 13:52:00,82.2,65.0,29.60,SE,135,0.0,0.0,56,0.00,CLR,SCT,0.00,WeatherDisplay:10.37,2013-07-30 17:52:00,
2013-07-30 13:57:00,83.1,64.8,29.60,SE,135,0.0,0.0,54,0.00,CLR,SCT,0.00,WeatherDisplay:10.37,2013-07-30 17:57:00,
2013-07-30 14:02:00,82.9,64.0,29.60,East,90,0.0,0.0,53,0.00,CLR,SCT,0.00,WeatherDisplay:10.37,2013-07-30 18:02:00,
2013-07-30 14:07:00,82.2,64.4,29.60,South,180,1.2,0.0,55,0.00,CLR,SCT,0.00,WeatherDisplay:10.37,2013-07-30 18:07:00,
2013-07-30 14:12:00,81.3,62.6,29.60,South,180,0.0,0.0,53,0.00,CLR,SCT,0.00,WeatherDisplay:10.37,2013-07-30 18:12:00,
2013-07-30 14:17:00,80.8,63.6,29.60,NW,315,1.2,0.0,56,0.00,CLR,SCT,0.00,WeatherDisplay:10.37,2013-07-30 18:17:00,
2013-07-30 14:22:00,81.0,62.7,29.60,South,180,0.0,0.0,54,0.00,CLR,SCT,0.00,WeatherDisplay:10.37,2013-07-30 18:22:00,
2013-07-30 14:28:00,81.0,62.7,29.60,South,180,1.2,0.0,54,0.00,CLR,SCT,0.00,WeatherDisplay:10.37,2013-07-30 18:28:00,
2013-07-30 14:33:00,81.7,63.9,29.60,North,0,1.2,0.0,55,0.00,CLR,SCT,0.00,WeatherDisplay:10.37,2013-07-30 18:33:00,
2013-07-30 14:38:00,82.2,66.0,29.60,SE,135,0.0,0.0,58,0.00,CLR,SCT,0.00,WeatherDisplay:10.37,2013-07-30 18:38:00,
2013-07-30 14:43:00,82.8,63.9,29.60,SE,135,1.2,0.0,53,0.00,CLR,SCT,0.00,WeatherDisplay:10.37,2013-07-30 18:43:00,
2013-07-30 14:48:00,82.9,64.6,29.60,NW,315,1.2,0.0,54,0.00,CLR,SCT,0.00,WeatherDisplay:10.37,2013-07-30 18:48:00,
2013-07-30 14:53:00,83.5,66.1,29.59,South,180,1.2,0.0,56,0.00,CLR,SCT,0.00,WeatherDisplay:10.37,2013-07-30 18:53:00,
2013-07-30 14:58:00,83.1,64.2,29.59,NW,315,1.2,0.0,53,0.00,CLR,SCT,0.00,WeatherDisplay:10.37,2013-07-30 18:58:00,
2013-07-30 15:03:00,82.8,65.5,29.59,SE,135,1.2,0.0,56,0.00,CLR,SCT,0.00,WeatherDisplay:10.37,2013-07-30 19:03:00,
2013-07-30 15:08:00,83.7,64.7,29.59,South,180,0.0,0.0,53,0.00,CLR,SCT,0.00,WeatherDisplay:10.37,2013-07-30 19:08:00,
2013-07-30 15:13:00,84.2,64.7,29.59,NNW,338,1.2,0.0,52,0.00,CLR,SCT,0.00,WeatherDisplay:10.37,2013-07-30 19:13:00,
2013-07-30 15:18:00,84.9,65.3,29.58,NE,45,0.0,0.0,52,0.00,CLR,SCT,0.00,WeatherDisplay:10.37,2013-07-30 19:18:00,
2013-07-30 15:23:00,84.9,65.9,29.58,SE,135,0.0,0.0,53,0.00,CLR,SCT,0.00,WeatherDisplay:10.37,2013-07-30 19:23:00,
2013-07-30 15:28:00,85.8,66.2,29.58,NW,315,0.0,0.0,52,0.00,CLR,SCT,0.00,WeatherDisplay:10.37,2013-07-30 19:28:00,
2013-07-30 15:33:00,83.8,65.4,29.58,North,0,0.0,0.0,54,0.00,CLR,SCT,0.00,WeatherDisplay:10.37,2013-07-30 19:33:00,
2013-07-30 15:38:00,83.1,65.3,29.58,North,0,0.0,0.0,55,0.00,CLR,SCT,0.00,WeatherDisplay:10.37,2013-07-30 19:38:00,
2013-07-30 15:43:00,82.4,64.6,29.58,North,0,0.0,0.0,55,0.00,CLR,SCT,0.00,WeatherDisplay:10.37,2013-07-30 19:43:00,
2013-07-30 15:48:00,82.0,65.3,29.58,SE,135,0.0,0.0,57,0.00,CLR,SCT,0.00,WeatherDisplay:10.37,2013-07-30 19:48:00,
2013-07-30 15:53:00,81.5,64.3,29.58,West,270,1.2,0.0,56,0.00,CLR,SCT,0.00,WeatherDisplay:10.37,2013-07-30 19:53:00,
2013-07-30 15:58:00,81.7,66.9,29.58,SW,225,1.2,0.0,61,0.00,CLR,SCT,0.00,WeatherDisplay:10.37,2013-07-30 19:58:00,
2013-07-30 16:03:00,81.9,65.6,29.58,East,90,0.0,0.0,58,0.00,CLR,SCT,0.00,WeatherDisplay:10.37,2013-07-30 20:03:00,
2013-07-30 16:08:00,81.5,65.3,29.58,SE,135,1.2,0.0,58,0.00,CLR,SCT,0.00,WeatherDisplay:10.37,2013-07-30 20:08:00,
2013-07-30 16:13:00,81.7,66.9,29.58,SE,135,0.0,0.0,61,0.00,CLR,SCT,0.00,WeatherDisplay:10.37,2013-07-30 20:13:00,
2013-07-30 16:18:00,81.7,66.9,29.58,SE,135,1.2,0.0,61,0.00,CLR,SCT,0.00,WeatherDisplay:10.37,2013-07-30 20:18:00,
2013-07-30 16:23:00,81.7,66.4,29.57,SE,135,1.2,0.0,60,0.00,CLR,SCT,0.00,WeatherDisplay:10.37,2013-07-30 20:23:00,
2013-07-30 16:28:00,82.0,66.8,29.57,SE,135,1.2,0.0,60,0.00,CLR,SCT,0.00,WeatherDisplay:10.37,2013-07-30 20:28:00,
2013-07-30 16:33:00,82.0,66.8,29.57,SE,135,0.0,0.0,60,0.00,CLR,SCT,0.00,WeatherDisplay:10.37,2013-07-30 20:33:00,
2013-07-30 16:38:00,81.5,67.2,29.57,East,90,1.2,0.0,62,0.00,CLR,SCT,0.00,WeatherDisplay:10.37,2013-07-30 20:38:00,
2013-07-30 16:43:00,81.3,66.6,29.57,North,0,0.0,0.0,61,0.00,CLR,SCT,0.00,WeatherDisplay:10.37,2013-07-30 20:43:00,
2013-07-30 16:48:00,81.1,66.4,29.57,SE,135,0.0,0.0,61,0.00,CLR,SCT,0.00,WeatherDisplay:10.37,2013-07-30 20:48:00,
2013-07-30 16:53:00,81.1,65.9,29.57,SE,135,1.2,0.0,60,0.00,CLR,SCT,0.00,WeatherDisplay:10.37,2013-07-30 20:53:00,
2013-07-30 16:58:00,81.3,67.1,29.57,North,0,0.0,0.0,62,0.00,CLR,SCT,0.00,WeatherDisplay:10.37,2013-07-30 20:58:00,
2013-07-30 17:03:00,81.5,66.8,29.57,SW,225,0.0,0.0,61,0.00,CLR,SCT,0.00,WeatherDisplay:10.37,2013-07-30 21:03:00,
2013-07-30 17:08:00,81.3,66.1,29.57,SE,135,0.7,0.0,60,0.00,CLR,SCT,0.00,WeatherDisplay:10.37,2013-07-30 21:08:00,
2013-07-30 17:13:00,81.1,65.9,29.57,South,180,1.2,0.0,60,0.00,CLR,SCT,0.00,WeatherDisplay:10.37,2013-07-30 21:13:00,
2013-07-30 17:18:00,81.1,65.9,29.57,East,90,1.2,0.0,60,0.00,CLR,SCT,0.00,WeatherDisplay:10.37,2013-07-30 21:18:00,
2013-07-30 17:23:00,81.1,66.9,29.57,SE,135,1.2,0.0,62,0.00,CLR,SCT,0.00,WeatherDisplay:10.37,2013-07-30 21:23:00,
2013-07-30 17:28:00,81.0,66.2,29.57,SE,135,1.2,0.0,61,0.00,CLR,SCT,0.00,WeatherDisplay:10.37,2013-07-30 21:28:00,
2013-07-30 17:33:00,80.6,65.9,29.57,SE,135,0.0,0.0,61,0.00,CLR,SCT,0.00,WeatherDisplay:10.37,2013-07-30 21:33:00,
2013-07-30 17:38:00,80.4,67.1,29.57,NW,315,0.0,0.0,64,0.00,CLR,SCT,0.00,WeatherDisplay:10.37,2013-07-30 21:38:00,
2013-07-30 17:43:00,80.1,67.7,29.57,NW,315,1.2,0.0,66,0.00,CLR,SCT,0.00,WeatherDisplay:10.37,2013-07-30 21:43:00,
2013-07-30 17:48:00,80.1,67.7,29.57,South,180,0.0,0.0,66,0.00,CLR,SCT,0.00,WeatherDisplay:10.37,2013-07-30 21:48:00,
2013-07-30 17:53:00,80.2,67.0,29.57,NW,315,1.2,0.0,64,0.00,CLR,SCT,0.00,WeatherDisplay:10.37,2013-07-30 21:53:00,
2013-07-30 17:58:00,80.2,67.0,29.57,South,180,0.0,0.0,64,0.00,CLR,SCT,0.00,WeatherDisplay:10.37,2013-07-30 21:58:00,
2013-07-30 18:03:00,80.1,67.7,29.57,SW,225,0.0,0.0,66,0.00,CLR,SCT,0.00,WeatherDisplay:10.37,2013-07-30 22:03:00,
2013-07-30 18:08:00,79.9,67.5,29.56,NW,315,0.0,0.0,66,0.00,CLR,SCT,0.00,WeatherDisplay:10.37,2013-07-30 22:08:00,
2013-07-30 18:13:00,79.7,67.8,29.56,NW,315,0.0,0.0,67,0.00,CLR,SCT,0.00,WeatherDisplay:10.37,2013-07-30 22:13:00,
2013-07-30 18:18:00,79.9,67.5,29.56,SE,135,0.0,0.0,66,0.00,CLR,SCT,0.00,WeatherDisplay:10.37,2013-07-30 22:18:00,
2013-07-30 18:23:00,80.1,67.7,29.56,SE,135,0.0,0.0,66,0.00,CLR,SCT,0.00,WeatherDisplay:10.37,2013-07-30 22:23:00,
2013-07-30 18:28:00,80.2,67.8,29.55,SE,135,0.0,0.0,66,0.00,CLR,SCT,0.00,WeatherDisplay:10.37,2013-07-30 22:28:00,
2013-07-30 18:33:00,80.4,68.0,29.56,SE,135,0.0,0.0,66,0.00,CLR,SCT,0.00,WeatherDisplay:10.37,2013-07-30 22:33:00,
2013-07-30 18:38:00,80.1,67.7,29.56,SE,135,0.0,0.0,66,0.00,CLR,SCT,0.00,WeatherDisplay:10.37,2013-07-30 22:38:00,
2013-07-30 18:43:00,79.7,67.3,29.56,SE,135,0.0,0.0,66,0.00,CLR,SCT,0.00,WeatherDisplay:10.37,2013-07-30 22:43:00,
2013-07-30 18:48:00,79.5,67.6,29.56,South,180,0.0,0.0,67,0.00,CLR,SCT,0.00,WeatherDisplay:10.37,2013-07-30 22:48:00,
2013-07-30 18:53:00,79.2,67.7,29.56,SE,135,0.0,0.0,68,0.00,CLR,SCT,0.00,WeatherDisplay:10.37,2013-07-30 22:53:00,
2013-07-30 18:58:00,79.0,67.9,29.56,NE,45,0.0,0.0,69,0.00,CLR,SCT,0.00,WeatherDisplay:10.37,2013-07-30 22:58:00,
2013-07-30 19:04:00,78.8,67.8,29.56,West,270,0.0,0.0,69,0.00,CLR,SCT,0.00,WeatherDisplay:10.37,2013-07-30 23:04:00,
2013-07-30 19:09:00,78.4,69.1,29.56,NW,315,0.0,0.0,73,0.00,CLR,SCT,0.00,WeatherDisplay:10.37,2013-07-30 23:09:00,
2013-07-30 19:14:00,78.1,68.7,29.56,NW,315,1.2,0.0,73,0.00,CLR,SCT,0.00,WeatherDisplay:10.37,2013-07-30 23:14:00,
2013-07-30 19:19:00,78.1,68.7,29.56,North,0,1.2,0.0,73,0.00,CLR,SCT,0.00,WeatherDisplay:10.37,2013-07-30 23:19:00,
2013-07-30 19:24:00,77.5,68.6,29.56,North,0,0.0,0.0,74,0.00,CLR,SCT,0.00,WeatherDisplay:10.37,2013-07-30 23:24:00,
2013-07-30 19:29:00,77.4,68.4,29.56,SW,225,0.0,0.0,74,0.00,CLR,SCT,0.00,WeatherDisplay:10.37,2013-07-30 23:29:00,
2013-07-30 19:34:00,77.2,69.0,29.56,South,180,0.0,0.0,76,0.00,CLR,SCT,0.00,WeatherDisplay:10.37,2013-07-30 23:34:00,
2013-07-30 19:39:00,77.0,69.2,29.56,SE,135,0.0,0.0,77,0.00,CLR,SCT,0.00,WeatherDisplay:10.37,2013-07-30 23:39:00,
2013-07-30 19:44:00,76.5,69.1,29.56,SE,135,0.0,0.0,78,0.00,CLR,SCT,0.00,WeatherDisplay:10.37,2013-07-30 23:44:00,
2013-07-30 19:49:00,76.1,69.1,29.56,South,180,1.2,0.0,79,0.00,CLR,SCT,0.00,WeatherDisplay:10.37,2013-07-30 23:49:00,
2013-07-30 19:54:00,75.9,69.3,29.56,South,180,0.0,0.0,80,0.00,CLR,SCT,0.00,WeatherDisplay:10.37,2013-07-30 23:54:00,
2013-07-30 19:59:00,75.6,69.3,29.56,South,180,0.0,0.0,81,0.00,CLR,SCT,0.00,WeatherDisplay:10.37,2013-07-30 23:59:00,
2013-07-30 20:04:00,75.4,69.1,29.55,South,180,0.0,0.0,81,0.00,CLR,SCT,0.00,WeatherDisplay:10.37,2013-07-31 00:04:00,
2013-07-30 20:09:00,75.0,69.5,29.56,SE,135,1.2,0.0,83,0.00,CLR,SCT,0.00,WeatherDisplay:10.37,2013-07-31 00:09:00,
2013-07-30 20:14:00,74.7,69.5,29.56,South,180,1.6,0.0,84,0.00,CLR,SCT,0.00,WeatherDisplay:10.37,2013-07-31 00:14:00,
2013-07-30 20:19:00,74.5,69.7,29.55,South,180,0.0,0.0,85,0.00,CLR,SCT,0.00,WeatherDisplay:10.37,2013-07-31 00:19:00,
2013-07-30 20:24:00,74.3,69.5,29.55,NE,45,0.0,0.0,85,0.00,CLR,SCT,0.00,WeatherDisplay:10.37,2013-07-31 00:24:00,
2013-07-30 20:29:00,74.3,69.8,29.56,NW,315,1.2,0.0,86,0.00,CLR,SCT,0.00,WeatherDisplay:10.37,2013-07-31 00:29:00,
2013-07-30 20:34:00,74.3,69.8,29.56,South,180,0.0,0.0,86,0.00,CLR,SCT,0.00,WeatherDisplay:10.37,2013-07-31 00:34:00,
2013-07-30 20:39:00,74.3,69.8,29.56,South,180,1.2,0.0,86,0.00,CLR,SCT,0.00,WeatherDisplay:10.37,2013-07-31 00:39:00,
2013-07-30 20:44:00,73.9,69.5,29.56,South,180,1.2,0.0,86,0.00,CLR,SCT,0.00,WeatherDisplay:10.37,2013-07-31 00:44:00,
2013-07-30 20:49:00,73.8,69.3,29.56,South,180,1.2,0.0,86,0.00,CLR,SCT,0.00,WeatherDisplay:10.37,2013-07-31 00:49:00,
2013-07-30 20:54:00,73.6,69.5,29.56,South,180,0.0,0.0,87,0.00,CLR,SCT,0.00,WeatherDisplay:10.37,2013-07-31 00:54:00,
2013-07-30 20:59:00,73.6,69.5,29.56,South,180,0.0,0.0,87,0.00,CLR,SCT,0.00,WeatherDisplay:10.37,2013-07-31 00:59:00,
2013-07-30 21:04:00,73.4,69.3,29.56,South,180,0.0,0.0,87,0.00,CLR,SCT,0.00,WeatherDisplay:10.37,2013-07-31 01:04:00,
2013-07-30 21:09:00,73.2,69.1,29.56,South,180,0.0,0.0,87,0.00,CLR,SCT,0.00,WeatherDisplay:10.37,2013-07-31 01:09:00,
2013-07-30 21:14:00,73.2,69.1,29.56,East,90,0.0,0.0,87,0.00,CLR,SCT,0.00,WeatherDisplay:10.37,2013-07-31 01:14:00,
2013-07-30 21:19:00,73.0,68.9,29.56,East,90,0.0,0.0,87,0.00,CLR,SCT,0.00,WeatherDisplay:10.37,2013-07-31 01:19:00,
2013-07-30 21:24:00,73.0,69.3,29.56,East,90,0.0,0.0,88,0.00,CLR,SCT,0.00,WeatherDisplay:10.37,2013-07-31 01:24:00,
2013-07-30 21:29:00,72.9,69.1,29.56,South,180,1.2,0.0,88,0.00,CLR,SCT,0.00,WeatherDisplay:10.37,2013-07-31 01:29:00,
2013-07-30 21:34:00,72.5,69.1,29.57,SE,135,1.2,0.0,89,0.00,CLR,SCT,0.00,WeatherDisplay:10.37,2013-07-31 01:34:00,
2013-07-30 21:39:00,72.5,69.1,29.57,SE,135,1.2,0.0,89,0.00,CLR,SCT,0.00,WeatherDisplay:10.37,2013-07-31 01:39:00,
2013-07-30 21:44:00,72.5,69.4,29.57,South,180,1.2,0.0,90,0.00,CLR,SCT,0.00,WeatherDisplay:10.37,2013-07-31 01:44:00,
2013-07-30 21:49:00,72.3,69.2,29.57,South,180,0.0,0.0,90,0.00,CLR,SCT,0.00,WeatherDisplay:10.37,2013-07-31 01:49:00,
2013-07-30 21:54:00,72.1,69.0,29.57,South,180,0.0,0.0,90,0.00,CLR,SCT,0.00,WeatherDisplay:10.37,2013-07-31 01:54:00,
2013-07-30 21:59:00,72.1,69.0,29.58,South,180,0.0,0.0,90,0.00,CLR,SCT,0.00,WeatherDisplay:10.37,2013-07-31 01:59:00,
2013-07-30 22:04:00,72.1,69.0,29.57,South,180,1.2,0.0,90,0.00,CLR,SCT,0.00,WeatherDisplay:10.37,2013-07-31 02:04:00,
2013-07-30 22:09:00,72.1,69.0,29.57,South,180,0.0,0.0,90,0.00,CLR,SCT,0.00,WeatherDisplay:10.37,2013-07-31 02:09:00,
2013-07-30 22:14:00,72.1,69.0,29.58,South,180,0.0,0.0,90,0.00,CLR,SCT,0.00,WeatherDisplay:10.37,2013-07-31 02:14:00,
2013-07-30 22:19:00,72.1,69.0,29.57,South,180,0.0,0.0,90,0.00,CLR,SCT,0.00,WeatherDisplay:10.37,2013-07-31 02:19:00,
2013-07-30 22:24:00,72.0,69.2,29.58,South,180,0.0,0.0,91,0.00,CLR,SCT,0.00,WeatherDisplay:10.37,2013-07-31 02:24:00,
2013-07-30 22:29:00,72.0,69.2,29.58,SE,135,1.2,0.0,91,0.00,CLR,SCT,0.00,WeatherDisplay:10.37,2013-07-31 02:29:00,
2013-07-30 22:34:00,71.8,69.0,29.58,SE,135,0.0,0.0,91,0.00,CLR,SCT,0.00,WeatherDisplay:10.37,2013-07-31 02:34:00,
2013-07-30 22:39:00,71.8,69.0,29.58,South,180,1.2,0.0,91,0.00,CLR,SCT,0.00,WeatherDisplay:10.37,2013-07-31 02:39:00,
2013-07-30 22:44:00,71.8,69.0,29.58,South,180,1.2,0.0,91,0.00,CLR,SCT,0.00,WeatherDisplay:10.37,2013-07-31 02:44:00,
2013-07-30 22:49:00,71.8,69.0,29.58,South,180,1.2,0.0,91,0.00,CLR,SCT,0.00,WeatherDisplay:10.37,2013-07-31 02:49:00,
2013-07-30 22:54:00,71.6,68.8,29.59,East,90,0.0,0.0,91,0.00,CLR,SCT,0.00,WeatherDisplay:10.37,2013-07-31 02:54:00,
2013-07-30 22:59:00,71.6,68.8,29.59,South,180,0.0,0.0,91,0.00,CLR,SCT,0.00,WeatherDisplay:10.37,2013-07-31 02:59:00,
2013-07-30 23:04:00,71.6,68.8,29.58,South,180,0.0,0.0,91,0.00,CLR,SCT,0.00,WeatherDisplay:10.37,2013-07-31 03:04:00,
2013-07-30 23:09:00,71.6,68.8,29.58,South,180,0.0,0.0,91,0.00,CLR,SCT,0.00,WeatherDisplay:10.37,2013-07-31 03:09:00,
2013-07-30 23:14:00,71.4,69.0,29.58,South,180,0.0,0.0,92,0.00,CLR,SCT,0.00,WeatherDisplay:10.37,2013-07-31 03:14:00,
2013-07-30 23:19:00,71.4,69.0,29.58,South,180,0.0,0.0,92,0.00,CLR,SCT,0.00,WeatherDisplay:10.37,2013-07-31 03:19:00,
2013-07-30 23:24:00,71.4,69.0,29.58,South,180,0.0,0.0,92,0.00,CLR,SCT,0.00,WeatherDisplay:10.37,2013-07-31 03:24:00,
2013-07-30 23:29:00,71.2,68.8,29.58,South,180,0.0,0.0,92,0.00,CLR,SCT,0.00,WeatherDisplay:10.37,2013-07-31 03:29:00,
2013-07-30 23:34:00,71.2,68.8,29.57,South,180,0.0,0.0,92,0.00,CLR,SCT,0.00,WeatherDisplay:10.37,2013-07-31 03:34:00,
2013-07-30 23:39:00,71.1,68.9,29.58,South,180,1.2,0.0,93,0.00,CLR,SCT,0.00,WeatherDisplay:10.37,2013-07-31 03:39:00,
2013-07-30 23:44:00,71.1,68.9,29.58,South,180,0.0,0.0,93,0.00,CLR,SCT,0.00,WeatherDisplay:10.37,2013-07-31 03:44:00,
2013-07-30 23:49:00,71.1,68.9,29.58,South,180,1.2,0.0,93,0.00,CLR,SCT,0.00,WeatherDisplay:10.37,2013-07-31 03:49:00,
2013-07-30 23:54:00,70.9,68.8,29.58,South,180,0.0,0.0,93,0.00,CLR,SCT,0.00,WeatherDisplay:10.37,2013-07-31 03:54:00,
2013-07-30 23:59:00,70.9,68.8,29.58,South,180,0.0,0.0,93,0.00,CLR,SCT,0.00,WeatherDisplay:10.37,2013-07-31 03:59:00,